STARLINK-2499, 48377

Orbit data source: Space-Track

STARLINK-2499, 48377 is a payload satellite owned by SpaceX/Seattle (US) in LEO that was launched on Tue, 04 May 2021 UTC via an FALCON 9 launch vehicle from the Air Force Eastern Test Range (AFETR). Payload-class satellites include a variety of spacecraft equipped with specific instruments for various scientific and technological missions. These include communications satellites like Starlink; space stations such as the ISS; scientific satellites like the Hubble; Earth observation satellites from companies like Planet Labs, Umbra, and HawkEye 360; GPS; miniature CubeSats for education and research; and military/defense satellites.

Loading next visibility...
Identifier
48377, 2021-038AA
Orbit
LEO
Country
Flag of USUS
Related business
Manufacturer
SpaceX/Seattle
Mission
Operational Commercial Communications
Bus & Motor
STARLINK, Unknown motor
Mass
260 kg wet, ~248 kg dry
Launch date (UTC)
2021-05-04 (5 years ago)
Launch vehicle
FALCON 9
Launch site
Air Force Eastern Test Range (AFETR)
Object type
Payload
Rocket body
Debris
Shape & HBR
Box + 1 Pan, 10.1 m
Radar Cross Section
13.562 m², Large (>1 m²)

Expand to show TLE details & history
Last TLE update: 2 days ago

TLE from 2 days ago
0 STARLINK-2499
1 48377U 21038AA  26171.42246580  .00000398  00000-0  24588-4 0  9992
2 48377  53.1588 229.9261 0001038  82.5011 277.6108 15.31702154282968
Epoch: 2026-06-20T10:08Z
TLE epoch observation values (Epoch: 2026-06-20T10:08:21.045Z)
Latitude
-0.00003°
Longitude
169.20108°
Altitude
471.54 km
Speed
7.632 km/s
True Right ascension
15h 19m 42s
True Declination
0° 00' 00"
Sunlit
Object was in full shadow at epoch
Visualization orbit readout
Latitude
Unknown
Longitude
Unknown
Altitude
Unknown
Speed
Unknown
Apparent Right ascension
Unknown
Apparent Declination
Unknown
Sunlit
N/A
Visualization observer readout
Local Sidereal Time
21:40:54
Azimuth
Unknown
Elevation
Unknown
Doppler factor
Unknown
Orbital elements
Apogee altitude
471.701 km
Perigee altitude
470.279 km
Semi-major axis
6,849.127 km
Eccentricity
0.0001
Inclination
53.1588°
RAAN
229.9261°
Arg. of periapsis
82.5011°
True anomaly
277.59901°
Mean anomaly
277.6108°
Eccentric anomaly
277.60491°
Mean motion
3.82904 °/min
Orbital period
94.02 mins
BSTAR
0.000024588
Loading maneuver chart data...
Computing Atmospheric mass density...

Documentation

Showing up to 5 results
|